• In Romania
  • List of Countries
  • For 7 days
  • Water Temperature
  • Satellite Maps
  • Weather Map
  • Weather Widgets
  • user-avatar
    Login

    Hourly Weather Knighton

    Today, 24 February, Saturday

    Time Temperature Precipitation Wind Pressure Humidity
    00:00 -7°C° 0 mm 4 mps 733 mmHg 86%
    01:00 -7°C° 0 mm 4 mps 733 mmHg 87%
    02:00 -7°C° 0 mm 4 mps 733 mmHg 87%
    03:00 -7°C° 0 mm 4 mps 733 mmHg 88%
    04:00 -7°C° 0 mm 4 mps 733 mmHg 88%
    05:00 -7°C° 0 mm 4 mps 733 mmHg 88%
    06:00 -7°C° 0 mm 4 mps 733 mmHg 88%
    07:00 -5°C° 0 mm 4 mps 734 mmHg 82%
    08:00 -6°C° 0 mm 5 mps 734 mmHg 76%
    09:00 -5°C° 0 mm 5 mps 735 mmHg 70%
    10:00 -2°C° 0 mm 5 mps 735 mmHg 64%
    11:00 -1°C° 0 mm 5 mps 735 mmHg 58%
    12:00 0°C° 0 mm 5 mps 736 mmHg 52%
    13:00 +1°C° 0 mm 5 mps 736 mmHg 52%
    14:00 +1°C° 0 mm 6 mps 735 mmHg 51%
    15:00 +2°C° 0 mm 6 mps 735 mmHg 51%
    16:00 0°C° 0 mm 5 mps 736 mmHg 55%
    17:00 -1°C° 0 mm 5 mps 736 mmHg 58%
    18:00 -4°C° 0 mm 5 mps 736 mmHg 62%
    19:00 -4°C° 0 mm 5 mps 736 mmHg 65%
    20:00 -5°C° 0 mm 5 mps 737 mmHg 67%
    21:00 -5°C° 0 mm 5 mps 737 mmHg 70%
    22:00 -5°C° 0 mm 5 mps 737 mmHg 73%
    23:00 -5°C° 0 mm 4 mps 738 mmHg 76%

    Tomorrow, 25 February, Sunday

    Time Temperature Precipitation Wind Pressure Humidity
    00:00 -5°C° 0 mm 4 mps 738 mmHg 79%
    01:00 -5°C° 0 mm 4 mps 738 mmHg 81%
    02:00 -5°C° 0 mm 4 mps 738 mmHg 83%
    03:00 -5°C° 0 mm 4 mps 738 mmHg 84%
    04:00 -5°C° 0 mm 4 mps 738 mmHg 82%
    05:00 -6°C° 0 mm 5 mps 739 mmHg 80%
    06:00 -6°C° 0 mm 5 mps 739 mmHg 77%
    07:00 -6°C° 0 mm 5 mps 739 mmHg 72%
    08:00 -5°C° 0 mm 6 mps 740 mmHg 67%
    09:00 -6°C° 0 mm 7 mps 740 mmHg 61%
    10:00 -3°C° 0 mm 7 mps 740 mmHg 56%
    11:00 -2°C° 0 mm 7 mps 741 mmHg 51%
    12:00 -1°C° 0 mm 7 mps 741 mmHg 46%
    13:00 -1°C° 0 mm 7 mps 741 mmHg 46%
    14:00 -1°C° 0 mm 7 mps 741 mmHg 46%
    15:00 -1°C° 0 mm 7 mps 741 mmHg 46%
    16:00 -2°C° 0 mm 6 mps 741 mmHg 50%
    17:00 -2°C° 0 mm 5 mps 741 mmHg 54%
    18:00 -5°C° 0 mm 5 mps 741 mmHg 59%
    19:00 -5°C° 0 mm 5 mps 741 mmHg 60%
    20:00 -6°C° 0 mm 5 mps 742 mmHg 61%
    21:00 -7°C° 0 mm 5 mps 742 mmHg 63%
    22:00 -7°C° 0 mm 5 mps 742 mmHg 66%
    23:00 -7°C° 0 mm 5 mps 742 mmHg 68%

    Day after tomorrow, 26 February, Monday

    Time Temperature Precipitation Wind Pressure Humidity
    00:00 -7°C° 0 mm 4 mps 743 mmHg 71%
    01:00 -7°C° 0 mm 4 mps 743 mmHg 75%
    02:00 -7°C° 0 mm 4 mps 743 mmHg 79%
    03:00 -8°C° 0 mm 4 mps 743 mmHg 82%
    04:00 -8°C° 0 mm 4 mps 743 mmHg 82%
    05:00 -8°C° 0 mm 4 mps 743 mmHg 82%
    06:00 -8°C° 0 mm 4 mps 743 mmHg 82%
    07:00 -7°C° 0 mm 5 mps 743 mmHg 74%
    08:00 -6°C° 0 mm 6 mps 743 mmHg 67%
    09:00 -5°C° 0 mm 6 mps 743 mmHg 60%
    10:00 -6°C° 0 mm 7 mps 743 mmHg 56%
    11:00 -4°C° 0 mm 7 mps 744 mmHg 52%
    12:00 -3°C° 0 mm 7 mps 744 mmHg 47%
    13:00 -3°C° 0 mm 7 mps 743 mmHg 47%
    14:00 -3°C° 0 mm 7 mps 743 mmHg 47%
    15:00 -3°C° 0 mm 7 mps 743 mmHg 47%
    16:00 -4°C° 0 mm 6 mps 743 mmHg 51%
    17:00 -5°C° 0 mm 5 mps 742 mmHg 55%
    18:00 -6°C° 0 mm 5 mps 742 mmHg 60%
    19:00 -6°C° 0 mm 5 mps 742 mmHg 64%
    20:00 -7°C° 0 mm 4 mps 742 mmHg 68%
    21:00 -8°C° 0 mm 4 mps 742 mmHg 72%
    22:00 -8°C° 0 mm 4 mps 742 mmHg 74%
    23:00 -8°C° 0 mm 4 mps 742 mmHg 76%

    27 February, Tuesday

    Time Temperature Precipitation Wind Pressure Humidity
    00:00 -7°C° 0 mm 3 mps 741 mmHg 78%
    01:00 -7°C° 0 mm 3 mps 741 mmHg 79%
    02:00 -7°C° 0 mm 3 mps 740 mmHg 80%
    03:00 -7°C° 0 mm 3 mps 740 mmHg 81%
    04:00 -6°C° 0.1 mm 2 mps 739 mmHg 83%
    05:00 -6°C° 0.1 mm 2 mps 739 mmHg 85%
    06:00 -6°C° 0.1 mm 2 mps 738 mmHg 88%
    07:00 -5°C° 0 mm 2 mps 738 mmHg 82%
    08:00 -6°C° 0 mm 3 mps 738 mmHg 77%
    09:00 -5°C° 0 mm 4 mps 738 mmHg 71%
    10:00 -4°C° 0 mm 4 mps 737 mmHg 64%
    11:00 -4°C° 0 mm 5 mps 737 mmHg 57%
    12:00 -4°C° 0 mm 5 mps 737 mmHg 50%
    13:00 -4°C° 0.1 mm 5 mps 736 mmHg 51%
    14:00 -4°C° 0.1 mm 5 mps 736 mmHg 51%
    15:00 -4°C° 0.1 mm 5 mps 735 mmHg 51%
    16:00 -4°C° 0.1 mm 4 mps 735 mmHg 58%
    17:00 -5°C° 0.1 mm 4 mps 735 mmHg 65%
    18:00 -6°C° 0.1 mm 3 mps 735 mmHg 71%
    19:00 -7°C° 0 mm 3 mps 734 mmHg 75%
    20:00 -7°C° 0 mm 3 mps 734 mmHg 79%
    21:00 -8°C° 0 mm 3 mps 734 mmHg 84%
    22:00 -8°C° 0 mm 3 mps 734 mmHg 85%
    23:00 -8°C° 0 mm 3 mps 733 mmHg 87%

    28 February, Wednesday

    Time Temperature Precipitation Wind Pressure Humidity
    00:00 -8°C° 0 mm 3 mps 733 mmHg 89%
    01:00 -8°C° 0 mm 3 mps 733 mmHg 89%
    02:00 -8°C° 0 mm 3 mps 732 mmHg 89%
    03:00 -8°C° 0 mm 3 mps 732 mmHg 89%
    04:00 -8°C° 0 mm 3 mps 731 mmHg 90%
    05:00 -9°C° 0 mm 3 mps 731 mmHg 90%
    06:00 -9°C° 0 mm 3 mps 731 mmHg 91%
    07:00 -9°C° 0 mm 4 mps 731 mmHg 85%
    08:00 -8°C° 0 mm 4 mps 731 mmHg 80%
    09:00 -7°C° 0 mm 5 mps 730 mmHg 74%
    10:00 -7°C° 0.1 mm 5 mps 730 mmHg 65%
    11:00 -6°C° 0.1 mm 5 mps 730 mmHg 56%
    12:00 -5°C° 0.1 mm 5 mps 730 mmHg 47%
    13:00 -5°C° 0.1 mm 5 mps 729 mmHg 46%
    14:00 -4°C° 0.1 mm 4 mps 729 mmHg 45%
    15:00 -4°C° 0.1 mm 4 mps 728 mmHg 45%
    16:00 -5°C° 0.1 mm 4 mps 728 mmHg 52%
    17:00 -6°C° 0.1 mm 3 mps 728 mmHg 59%
    18:00 -7°C° 0.1 mm 3 mps 728 mmHg 67%
    19:00 -7°C° 0 mm 3 mps 728 mmHg 68%
    20:00 -9°C° 0 mm 4 mps 728 mmHg 70%
    21:00 -9°C° 0 mm 4 mps 728 mmHg 71%
    22:00 -10°C° 0 mm 4 mps 728 mmHg 72%
    23:00 -10°C° 0 mm 4 mps 728 mmHg 72%

    1 March, Thursday

    Time Temperature Precipitation Wind Pressure Humidity
    00:00 -11°C° 0 mm 4 mps 728 mmHg 73%
    01:00 -11°C° 0 mm 4 mps 727 mmHg 74%
    02:00 -12°C° 0 mm 5 mps 727 mmHg 76%
    03:00 -12°C° 0 mm 5 mps 726 mmHg 78%
    04:00 -12°C° 0 mm 5 mps 725 mmHg 79%
    05:00 -12°C° 0 mm 5 mps 725 mmHg 81%
    06:00 -12°C° 0 mm 5 mps 724 mmHg 82%
    07:00 -12°C° 0 mm 6 mps 724 mmHg 77%
    08:00 -12°C° 0 mm 7 mps 723 mmHg 73%
    09:00 -11°C° 0 mm 7 mps 723 mmHg 68%
    10:00 -11°C° 0 mm 8 mps 722 mmHg 64%
    11:00 -10°C° 0 mm 8 mps 721 mmHg 61%
    12:00 -8°C° 0 mm 8 mps 720 mmHg 57%
    13:00 -8°C° 0 mm 8 mps 720 mmHg 58%
    14:00 -9°C° 0 mm 9 mps 719 mmHg 58%
    15:00 -9°C° 0 mm 9 mps 718 mmHg 59%
    16:00 -9°C° 0.1 mm 9 mps 717 mmHg 64%
    17:00 -8°C° 0.1 mm 8 mps 716 mmHg 69%
    18:00 -10°C° 0.1 mm 8 mps 716 mmHg 75%
    19:00 -10°C° 0.4 mm 8 mps 715 mmHg 79%
    20:00 -10°C° 0.4 mm 8 mps 715 mmHg 83%
    21:00 -9°C° 0.4 mm 9 mps 714 mmHg 87%
    22:00 -9°C° 0.5 mm 9 mps 713 mmHg 88%
    23:00 -9°C° 0.5 mm 9 mps 713 mmHg 89%
    Show more